Flag for Lithuania Weather past 2 weeks in Vilnius, Lithuania

Now
46 °F

Light rain. Fog.


Feels Like: 40 °F
Forecast: 38 / 45 °F
Wind: 16 mph from Southwest

Location: Vilnius Airport

Current Time: Dec 19, 2014 at 9:41:24 AM

Latest Report: Dec 19, 2014 at 9:20 AM


Visibility: 2 mi

Pressure: 29.45 "Hg

Humidity: 100%

Dew point: 46 °F

Location of VilniusLocation

Historic Weather in Vilnius — Graph

°F

Vilnius temperature yesterday

Maximum temperature yesterday: 34 °F (at 12:20 AM)
Minimum temperature yesterday: 32 °F (at 1:20 AM)
Average temperature yesterday: 33 °F

Past Weeks' High & Low Weather Summary

 TemperatureHumidityPressure
High45 °F (Dec 19, 8:20 AM)100% (Dec 4, 8:20 AM)30.36 "Hg (Dec 4, 8:20 AM)
Low21 °F (Dec 10, 11:20 PM)75% (Dec 13, 2:20 PM)29.39 "Hg (Dec 13, 4:20 AM)
Average32 °F97%29.95 "Hg
* Reported Dec 4 8:20 AM — Dec 19 8:20 AM, Vilnius, Weather by CustomWeather, © 2014

Note: Actual official high and low records may vary slightly from our data, if they occured in-between our weather recording intervals... More about our weather records

Advertising

Vilnius weather history for previous 24 hours

 ConditionsComfort  
Time TempWeatherWind HumidityBarometerVisibility
8:20 AM
Dec 19
45 °FRain. Fog.14 mph100%29.42 "Hg2 mi
7:50 AM43 °FRain. Fog.16 mph100%29.42 "Hg2 mi
7:20 AM43 °FRain. Fog.15 mph100%29.42 "Hg1 mi
6:50 AM43 °FLight rain. Fog.15 mph100%29.42 "Hg2 mi
6:20 AM41 °FLight rain. Fog.16 mph100%29.45 "Hg2 mi
5:20 AM39 °FLight rain. Fog.15 mph100%29.45 "Hg2 mi
4:50 AM39 °FLight rain. Fog.15 mph100%29.47 "Hg2 mi
4:20 AM39 °FLight rain. Fog.17 mph100%29.47 "Hg2 mi
3:50 AM39 °FLight rain. Fog.16 mph100%29.50 "Hg2 mi
3:20 AM37 °FRain. Fog.18 mph100%29.50 "Hg2 mi
2:50 AM37 °FRain. Fog.16 mph100%29.53 "Hg2 mi
2:20 AM36 °FLight rain. Fog.17 mph100%29.56 "Hg2 mi
1:50 AM36 °FLight rain. Fog.13 mph100%29.59 "Hg2 mi
1:20 AM36 °FFog.13 mph100%29.62 "Hg2 mi
12:50 AM36 °FFog.14 mph100%29.62 "Hg2 mi
12:20 AM36 °FFog.13 mph100%29.62 "Hg2 mi
11:50 PM
Dec 18
34 °FFog.9 mph100%29.65 "Hg1 mi
11:20 PM34 °FFog.13 mph100%29.68 "Hg1 mi
10:50 PM34 °FFog.10 mph100%29.68 "Hg1 mi
10:20 PM34 °FFog.12 mph100%29.68 "Hg1 mi
9:50 PM34 °FFog.13 mph100%29.68 "Hg1 mi
9:20 PM34 °FFog.12 mph100%29.68 "Hg1 mi
8:50 PM34 °FFog.10 mph100%29.71 "Hg1 mi
8:20 PM34 °FFog.10 mph100%29.68 "Hg1 mi
7:50 PM34 °FFog.9 mph100%29.71 "Hg1 mi
7:20 PM34 °FFog.10 mph100%29.71 "Hg1 mi
6:50 PM34 °FLight rain. Fog.10 mph100%29.71 "Hg1 mi
6:20 PM34 °FFog.10 mph100%29.71 "Hg1 mi
5:20 PM34 °FLight rain. Fog.10 mph93%29.71 "Hg1 mi
4:50 PM34 °FLight rain. Fog.9 mph93%29.71 "Hg2 mi
4:20 PM34 °FFog.10 mph93%29.71 "Hg2 mi
3:50 PM34 °FFog.9 mph93%29.71 "Hg2 mi
3:20 PM34 °FFog.9 mph93%29.71 "Hg2 mi
2:50 PM34 °FFog.8 mph93%29.71 "Hg2 mi
2:20 PM34 °FFog.9 mph93%29.71 "Hg2 mi
1:50 PM34 °FFog.9 mph93%29.71 "Hg2 mi
1:20 PM34 °FFog.9 mph93%29.71 "Hg2 mi
12:50 PM34 °FFog.8 mph93%29.71 "Hg2 mi
12:20 PM34 °FFog.9 mph93%29.71 "Hg2 mi
11:50 AM32 °FIce fog.9 mph100%29.71 "Hg2 mi
11:20 AM32 °FIce fog.10 mph93%29.74 "Hg2 mi
10:50 AM32 °FIce fog.10 mph93%29.74 "Hg2 mi
10:20 AM32 °FIce fog.10 mph93%29.74 "Hg2 mi
9:50 AM32 °FIce fog.9 mph93%29.74 "Hg2 mi
9:20 AM32 °FIce fog.10 mph100%29.71 "Hg2 mi
Weather by CustomWeather, © 2014

See weather overviewHow to use our weather pages